KB6LA Weather Reports


Display with metric or nautical units.
time (UTC)temp
F
wind
direction
speed
MPH
gust
MPH
rain 1hr
in
rain 24hr
in
rain mn
in
humidity
%
barometer
mb
20260902062516 65 19 3.0 4.0 0.00 0.00 0.00 73 1014.1
20260902062009 65 19 3.0 3.0 0.00 0.00 0.00 73 1014.1
20260902061503 65 352 1.0 4.0 0.00 0.00 0.00 73 1014.1
20260902060450 64 0 1.0 3.0 0.00 0.00 0.00 73 1014.1
20260902055437 64 342 1.0 2.0 0.00 0.00 0.00 73 1013.8
20260902054930 65 337 1.0 2.0 0.00 0.00 0.00 74 1013.8
20260902054424 65 327 1.0 2.0 0.00 0.00 0.00 74 1013.8
20260902053917 65 334 1.0 2.0 0.00 0.00 0.00 74 1013.8
20260902053411 65 344 1.0 2.0 0.00 0.00 0.00 74 1013.8
20260902052359 65 333 1.0 3.0 0.00 0.00 0.00 74 1013.8
20260902051851 65 330 1.0 4.0 0.00 0.00 0.00 74 1013.8
20260902051345 65 16 3.0 4.0 0.00 0.00 0.00 74 1013.8
20260902050333 66 357 1.0 3.0 0.00 0.00 0.00 77 1013.8
20260902044306 66 335 1.0 2.0 0.00 0.00 0.00 76 1013.8
20260902043252 65 340 0.0 2.0 0.00 0.00 0.00 76 1013.4
20260902042746 66 328 1.0 1.0 0.00 0.00 0.00 76 1013.4
20260902042240 66 321 0.0 2.0 0.00 0.00 0.00 77 1013.4
20260902041734 66 329 0.0 2.0 0.00 0.00 0.00 77 1013.4
20260902041227 66 318 1.0 2.0 0.00 0.00 0.00 77 1013.4
20260902040721 67 307 0.0 3.0 0.00 0.00 0.00 77 1013.4
20260902040214 67 320 2.0 3.0 0.00 0.00 0.00 76 1013.4
20260902035202 67 322 0.0 2.0 0.00 0.00 0.00 76 1013.1
20260902034655 67 308 1.0 1.0 0.00 0.00 0.00 76 1013.1
20260902034148 67 292 0.0 1.0 0.00 0.00 0.00 76 1012.8
20260902033642 67 288 0.0 1.0 0.00 0.00 0.00 75 1012.8
20260902033136 68 259 0.0 2.0 0.00 0.00 0.00 75 1012.8
20260902032629 68 259 0.0 2.0 0.00 0.00 0.00 75 1012.8
20260902032122 68 250 1.0 3.0 0.00 0.00 0.00 75 1012.8
20260902031616 68 257 1.0 3.0 0.00 0.00 0.00 74 1012.8
20260902031109 68 274 0.0 3.0 0.00 0.00 0.00 74 1012.8
20260902030056 68 242 4.0 4.0 0.00 0.00 0.00 74 1012.8
20260902025550 68 245 2.0 4.0 0.00 0.00 0.00 73 1012.4
20260902025044 69 245 2.0 4.0 0.00 0.00 0.00 73 1012.8
20260902024031 69 252 4.0 6.0 0.00 0.00 0.00 72 1012.8
20260902023524 69 226 3.0 4.0 0.00 0.00 0.00 72 1012.4
20260902023018 69 281 2.0 7.0 0.00 0.00 0.00 72 1012.4
20260902022511 69 257 3.0 7.0 0.00 0.00 0.00 72 1012.4
20260902022005 69 245 3.0 6.0 0.00 0.00 0.00 71 1012.4
20260902021458 69 277 3.0 4.0 0.00 0.00 0.00 71 1012.4
20260902020951 70 266 2.0 8.0 0.00 0.00 0.00 71 1012.4
20260902020445 70 244 5.0 8.0 0.00 0.00 0.00 71 1012.4
20260902015938 70 230 4.0 6.0 0.00 0.00 0.00 71 1012.4
20260902015432 70 239 4.0 7.0 0.00 0.00 0.00 70 1012.4
20260902014926 70 200 3.0 7.0 0.00 0.00 0.00 71 1012.4
20260902014419 71 241 4.0 7.0 0.00 0.00 0.00 70 1012.4
20260902013913 71 245 3.0 9.0 0.00 0.00 0.00 70 1012.8
20260902012900 71 270 2.0 10.0 0.00 0.00 0.00 71 1012.4
20260902012355 71 199 5.0 10.0 0.00 0.00 0.00 71 1012.8
20260902011341 72 255 6.0 8.0 0.00 0.00 0.00 71 1012.4
20260902010833 72 216 5.0 8.0 0.00 0.00 0.00 70 1012.4
20260902010327 71 258 4.0 9.0 0.00 0.00 0.00 71 1012.8
20260902005821 72 258 6.0 9.0 0.00 0.00 0.00 71 1012.8
20260902005314 72 208 6.0 9.0 0.00 0.00 0.00 70 1012.8
20260902003755 73 243 7.0 11.0 0.00 0.00 0.00 69 1012.8
20260902002741 72 224 4.0 13.0 0.00 0.00 0.00 71 1012.8
20260902002235 72 231 7.0 13.0 0.00 0.00 0.00 69 1012.8
20260902001729 73 234 7.0 13.0 0.00 0.00 0.00 70 1012.8
20260902001222 73 248 6.0 10.0 0.00 0.00 0.00 69 1012.8
20260901235702 72 247 6.0 14.0 0.00 0.00 0.00 71 1012.8
20260901235156 72 226 11.0 14.0 0.00 0.00 0.00 71 1013.1
20260901234649 73 267 6.0 13.0 0.00 0.00 0.00 71 1013.1
20260901234142 72 274 4.0 13.0 0.00 0.00 0.00 71 1013.1
20260901233636 72 227 5.0 13.0 0.00 0.00 0.00 71 1013.1
20260901233130 73 226 10.0 13.0 0.00 0.00 0.00 68 1013.1
20260901231610 73 230 12.0 14.0 0.00 0.00 0.00 69 1013.1
20260901231103 72 276 2.0 14.0 0.00 0.00 0.00 72 1013.1
20260901230558 73 204 6.0 16.0 0.00 0.00 0.00 71 1013.1
20260901230050 73 268 8.0 16.0 0.00 0.00 0.00 71 1013.4
20260901225038 73 260 6.0 14.0 0.00 0.00 0.00 71 1013.4
20260901224530 73 257 11.0 14.0 0.00 0.00 0.00 70 1013.4
20260901224024 73 235 8.0 16.0 0.00 0.00 0.00 71 1013.4
20260901223518 73 210 9.0 16.0 0.00 0.00 0.00 72 1013.4
20260901223011 73 225 10.0 14.0 0.00 0.00 0.00 71 1013.4
20260901222504 73 230 7.0 15.0 0.00 0.00 0.00 70 1013.4
20260901221958 74 251 8.0 16.0 0.00 0.00 0.00 70 1013.4
20260901221452 74 237 8.0 16.0 0.00 0.00 0.00 69 1013.4
20260901220945 74 226 11.0 16.0 0.00 0.00 0.00 69 1013.4
20260901215931 75 217 11.0 14.0 0.00 0.00 0.00 68 1013.4
20260901215425 74 222 11.0 14.0 0.00 0.00 0.00 68 1013.8
20260901214919 75 274 6.0 14.0 0.00 0.00 0.00 65 1013.4
20260901214412 74 257 9.0 14.0 0.00 0.00 0.00 67 1013.8
20260901213906 75 255 10.0 11.0 0.00 0.00 0.00 65 1013.8
20260901212346 74 265 5.0 14.0 0.00 0.00 0.00 68 1013.8
20260901211840 75 226 11.0 14.0 0.00 0.00 0.00 65 1013.8
20260901211334 75 308 5.0 14.0 0.00 0.00 0.00 67 1013.8
20260901210826 74 244 6.0 14.0 0.00 0.00 0.00 68 1013.8
20260901210320 75 268 8.0 13.0 0.00 0.00 0.00 66 1013.8
20260901205814 75 244 7.0 14.0 0.00 0.00 0.00 65 1013.8
20260901204801 75 284 6.0 11.0 0.00 0.00 0.00 66 1014.1
20260901204254 75 238 7.0 11.0 0.00 0.00 0.00 65 1014.1
20260901203241 74 271 6.0 13.0 0.00 0.00 0.00 68 1014.1
20260901202734 74 241 6.0 13.0 0.00 0.00 0.00 67 1014.1
20260901202228 75 266 5.0 10.0 0.00 0.00 0.00 67 1014.5
20260901201722 74 210 7.0 14.0 0.00 0.00 0.00 68 1014.5
20260901200708 74 256 5.0 10.0 0.00 0.00 0.00 69 1014.5
20260901200202 73 181 6.0 11.0 0.00 0.00 0.00 70 1014.5
20260901195655 74 236 6.0 11.0 0.00 0.00 0.00 69 1014.5
20260901195149 74 178 6.0 14.0 0.00 0.00 0.00 69 1014.5
20260901194136 74 259 9.0 10.0 0.00 0.00 0.00 68 1014.5
20260901193629 74 320 6.0 10.0 0.00 0.00 0.00 68 1014.8
20260901193123 74 248 5.0 11.0 0.00 0.00 0.00 68 1014.8
20260901192616 74 279 8.0 11.0 0.00 0.00 0.00 69 1014.8
20260901192110 73 211 4.0 11.0 0.00 0.00 0.00 70 1014.8
20260901191057 73 251 7.0 11.0 0.00 0.00 0.00 70 1014.8
20260901190044 74 252 7.0 10.0 0.00 0.00 0.00 69 1014.8
20260901185031 74 224 4.0 11.0 0.00 0.00 0.00 69 1014.8
20260901184524 74 192 6.0 11.0 0.00 0.00 0.00 69 1014.8
20260901184017 74 171 4.0 9.0 0.00 0.00 0.00 69 1014.8
20260901183511 73 256 5.0 10.0 0.00 0.00 0.00 69 1014.8
20260901183005 74 230 8.0 10.0 0.00 0.00 0.00 69 1014.8
20260901182459 74 249 5.0 10.0 0.00 0.00 0.00 68 1014.8
20260901181951 73 227 2.0 10.0 0.00 0.00 0.00 70 1014.8
20260901181445 73 199 4.0 8.0 0.00 0.00 0.00 70 1014.8
20260901180432 73 229 2.0 10.0 0.00 0.00 0.00 72 1014.8
20260901175926 72 253 5.0 10.0 0.00 0.00 0.00 71 1014.8
20260901175419 73 235 3.0 8.0 0.00 0.00 0.00 71 1014.8
20260901174913 73 178 7.0 8.0 0.00 0.00 0.00 70 1014.8
20260901174406 73 162 2.0 8.0 0.00 0.00 0.00 72 1014.8
20260901173859 73 220 6.0 8.0 0.00 0.00 0.00 70 1014.8
20260901173353 72 270 3.0 8.0 0.00 0.00 0.00 72 1014.8
20260901172847 72 214 1.0 8.0 0.00 0.00 0.00 74 1014.8
20260901172340 71 241 2.0 9.0 0.00 0.00 0.00 73 1014.8
20260901171834 73 218 7.0 9.0 0.00 0.00 0.00 71 1014.8
20260901165808 73 111 2.0 6.0 0.00 0.00 0.00 68 1014.5
20260901165301 73 133 2.0 4.0 0.00 0.00 0.00 69 1014.8
20260901164754 72 153 1.0 6.0 0.00 0.00 0.00 71 1014.8
20260901164248 71 62 4.0 6.0 0.00 0.00 0.00 72 1014.5
20260901162223 70 183 3.0 6.0 0.00 0.00 0.00 75 1014.5
20260901161715 69 208 2.0 6.0 0.00 0.00 0.00 76 1014.5
20260901161209 69 190 3.0 6.0 0.00 0.00 0.00 77 1014.8
20260901160704 69 290 0.0 3.0 0.00 0.00 0.00 77 1014.8
20260901160156 69 297 1.0 3.0 0.00 0.00 0.00 79 1014.5
20260901155650 68 264 2.0 3.0 0.00 0.00 0.00 79 1014.8
20260901155144 69 283 2.0 4.0 0.00 0.00 0.00 80 1014.8
20260901154637 68 279 0.0 4.0 0.00 0.00 0.00 81 1014.5
20260901153624 67 276 2.0 3.0 0.00 0.00 0.00 81 1014.8
20260901153117 67 269 2.0 3.0 0.00 0.00 0.00 81 1014.5
20260901152104 67 300 1.0 3.0 0.00 0.00 0.00 81 1014.5
20260901151558 67 264 0.0 1.0 0.00 0.00 0.00 81 1014.1
20260901151052 67 319 0.0 1.0 0.00 0.00 0.00 82 1014.5
20260901150038 67 319 0.0 1.0 0.00 0.00 0.00 83 1014.1
20260901145532 66 319 0.0 2.0 0.00 0.00 0.00 84 1014.1
20260901145025 65 296 1.0 2.0 0.00 0.00 0.00 84 1014.1
20260901144518 65 310 1.0 2.0 0.00 0.00 0.00 85 1014.1
20260901144012 64 312 2.0 2.0 0.00 0.00 0.00 85 1013.8
20260901143506 64 322 1.0 2.0 0.00 0.00 0.00 86 1013.8
20260901142959 64 325 1.0 2.0 0.00 0.00 0.00 86 1013.8
20260901142453 64 328 1.0 2.0 0.00 0.00 0.00 86 1013.8
20260901141946 64 341 1.0 2.0 0.00 0.00 0.00 87 1013.4
20260901141439 63 332 0.0 2.0 0.00 0.00 0.00 87 1013.4
20260901140933 63 336 0.0 2.0 0.00 0.00 0.00 88 1013.4
20260901135920 62 355 2.0 3.0 0.00 0.00 0.00 89 1013.4
20260901135414 62 15 2.0 3.0 0.00 0.00 0.00 90 1013.4
20260901134907 61 351 1.0 2.0 0.00 0.00 0.00 90 1013.4
20260901134401 61 345 2.0 2.0 0.00 0.00 0.00 90 1013.4
20260901133854 61 323 0.0 2.0 0.00 0.00 0.00 90 1013.4
20260901133347 61 333 1.0 2.0 0.00 0.00 0.00 90 1013.4
20260901132841 61 312 1.0 3.0 0.00 0.00 0.00 90 1013.4
20260901132335 61 331 2.0 3.0 0.00 0.00 0.00 90 1013.4
20260901131828 61 342 1.0 3.0 0.00 0.00 0.00 90 1013.4
20260901131322 61 328 2.0 3.0 0.00 0.00 0.00 90 1013.4
20260901130815 61 334 1.0 3.0 0.00 0.00 0.00 90 1013.1
20260901130308 61 323 1.0 3.0 0.00 0.00 0.00 90 1013.1
20260901125802 61 326 2.0 3.0 0.00 0.00 0.00 90 1013.1
20260901124750 61 315 1.0 1.0 0.00 0.00 0.00 90 1013.1
20260901124242 61 307 0.0 1.0 0.00 0.00 0.00 90 1013.1
20260901123230 61 328 1.0 2.0 0.00 0.00 0.00 90 1013.1
20260901122723 61 321 0.0 2.0 0.00 0.00 0.00 90 1013.1
20260901122217 61 317 0.0 2.0 0.00 0.00 0.00 90 1013.1
20260901121710 61 328 1.0 2.0 0.00 0.00 0.00 90 1013.4
20260901121203 61 340 1.0 3.0 0.00 0.00 0.00 90 1013.1
20260901120657 61 342 2.0 3.0 0.00 0.00 0.00 90 1013.1
20260901120151 61 328 1.0 3.0 0.00 0.00 0.00 89 1013.1
20260901115647 61 332 2.0 2.0 0.00 0.00 0.00 89 1013.1
20260901115138 61 345 2.0 3.0 0.00 0.00 0.00 89 1013.1
20260901114632 61 323 1.0 3.0 0.00 0.00 0.00 89 1013.1
20260901114125 61 328 2.0 3.0 0.00 0.00 0.00 89 1013.1
20260901113618 61 328 2.0 3.0 0.00 0.00 0.00 89 1013.1
20260901113112 61 333 0.0 1.0 0.00 0.00 0.00 89 1013.1
20260901112607 61 333 1.0 1.0 0.00 0.00 0.00 89 1013.1
20260901112059 61 331 1.0 2.0 0.00 0.00 0.00 89 1013.1
20260901111553 62 332 0.0 2.0 0.00 0.00 0.00 89 1013.1
20260901111046 62 332 0.0 1.0 0.00 0.00 0.00 89 1013.1
20260901110033 62 329 1.0 2.0 0.00 0.00 0.00 89 1013.1
20260901105021 62 341 1.0 2.0 0.00 0.00 0.00 89 1013.1
20260901104513 62 339 1.0 2.0 0.00 0.00 0.00 89 1013.1
20260901104007 62 334 1.0 2.0 0.00 0.00 0.00 89 1013.1
20260901102954 62 327 1.0 1.0 0.00 0.00 0.00 89 1013.1
20260901102447 62 317 0.0 1.0 0.00 0.00 0.00 89 1013.1
20260901101941 62 307 0.0 1.0 0.00 0.00 0.00 89 1013.1
20260901100928 62 324 0.0 2.0 0.00 0.00 0.00 89 1013.1
20260901100421 62 329 1.0 3.0 0.00 0.00 0.00 89 1013.1
20260901095409 62 343 2.0 4.0 0.00 0.00 0.00 88 1013.4
20260901094903 62 332 2.0 3.0 0.00 0.00 0.00 88 1013.4
20260901094355 62 321 2.0 3.0 0.00 0.00 0.00 88 1013.4
20260901093849 62 316 2.0 3.0 0.00 0.00 0.00 88 1013.4
20260901093343 62 317 2.0 3.0 0.00 0.00 0.00 88 1013.4
20260901092836 63 344 2.0 3.0 0.00 0.00 0.00 88 1013.1
20260901091823 62 306 0.0 2.0 0.00 0.00 0.00 88 1013.1
20260901091316 62 337 0.0 2.0 0.00 0.00 0.00 88 1013.4
20260901090810 62 318 0.0 2.0 0.00 0.00 0.00 87 1013.4
20260901090304 63 324 0.0 1.0 0.00 0.00 0.00 87 1013.4
20260901085758 63 310 0.0 1.0 0.00 0.00 0.00 87 1013.4
20260901085250 63 319 1.0 1.0 0.00 0.00 0.00 88 1013.4
20260901084744 63 320 1.0 1.0 0.00 0.00 0.00 87 1013.4
20260901084238 63 306 0.0 2.0 0.00 0.00 0.00 87 1013.4
20260901082718 63 327 1.0 3.0 0.00 0.00 0.00 87 1013.4
20260901082211 63 328 2.0 3.0 0.00 0.00 0.00 87 1013.4
20260901081705 63 306 1.0 3.0 0.00 0.00 0.00 87 1013.4
20260901081159 63 318 2.0 2.0 0.00 0.00 0.00 86 1013.4
20260901080652 63 332 1.0 3.0 0.00 0.00 0.00 87 1013.4
20260901080145 63 312 1.0 3.0 0.00 0.00 0.00 86 1013.4
20260901075639 63 320 1.0 2.0 0.00 0.00 0.00 86 1013.4
20260901075133 64 328 1.0 2.0 0.00 0.00 0.00 86 1013.4
20260901074120 64 319 1.0 2.0 0.00 0.00 0.00 86 1013.4
20260901073614 64 322 0.0 2.0 0.00 0.00 0.00 86 1013.4
20260901073107 64 343 0.0 2.0 0.00 0.00 0.00 86 1013.4
20260901072601 64 327 1.0 2.0 0.00 0.00 0.00 86 1013.4
20260901072054 64 322 1.0 2.0 0.00 0.00 0.00 86 1013.4
20260901071547 64 323 0.0 1.0 0.00 0.00 0.00 86 1013.4
20260901071041 64 322 1.0 2.0 0.00 0.00 0.00 86 1013.4
20260901070535 64 323 0.0 2.0 0.00 0.00 0.00 85 1013.4
20260901070029 64 322 1.0 1.0 0.00 0.00 0.00 85 1013.4
20260901065521 64 325 0.0 2.0 0.00 0.00 0.00 85 1013.1
20260901065015 64 319 1.0 2.0 0.00 0.00 0.00 85 1013.1
20260901064510 64 319 0.0 1.0 0.00 0.00 0.00 85 1013.1
20260901064002 64 315 1.0 1.0 0.00 0.00 0.00 85 1013.1
20260901063456 64 314 0.0 1.0 0.00 0.00 0.00 85 1013.1
20260901062949 64 317 1.0 2.0 0.00 0.00 0.00 85 1012.8